[[{"header":{"parameterUnit":"m.s-1","parameterCategory":1,"la1":30.2991,"la2":30.254,"lo1":-89.0895,"lo2":-89.0444,"dy":0.0017,"dx":0.0017,"nx":28,"ny":28,"refTime":"2024-05-02T21:00:00:Z","depth":0,"parameterNumber":2,"parameterNumberName":"U-component_of_WINDS"},"data":[0,0,0,0,0,0,0,0,0,0,0,0,0,0,0,0,0,0,0,0,0,0,0,0,0,0,0,0,0,0,0,0,0,0,0,0,0,0,0,0,0,0,0,0,0,0,0,0,0,0,0,0,0,0,0,0,0,0,-3.1034,-3.1033,0,-3.0935,-3.0934,-3.0932,-3.0842,-3.0841,-3.084,-3.0839,-3.0728,-3.0726,-3.0724,0,0,0,0,0,0,0,0,0,0,0,0,0,-3.1138,-3.1137,-3.1034,-3.1033,-3.1032,-3.0935,-3.0934,-3.0932,-3.0842,-3.0841,-3.0839,-3.0838,-3.0729,-3.0726,-3.0724,0,0,0,0,0,0,0,0,0,0,0,0,0,-3.1071,-3.1136,-3.1034,-3.0975,-3.0969,-3.0935,-3.0933,-3.0932,-3.0842,-3.0841,-3.0839,-3.0838,-3.0729,-3.0727,-3.0724,-3.0738,0,0,-3.0715,-3.0714,0,0,0,0,0,0,0,0,-3.1075,-3.1067,-3.0985,-3.0979,-3.0972,-3.0899,-3.0929,-3.0866,-3.0843,-3.089,-3.0839,-3.0837,-3.0786,-3.0778,-3.0763,-3.0733,-3.0728,-3.0715,-3.0713,-3.0712,-3.0711,0,0,0,0,0,0,0,-3.108,-3.1071,-3.0994,-3.0984,-3.0976,-3.0951,-3.094,-3.0917,-3.0848,-3.0886,-3.0879,-3.0869,-3.0782,-3.0766,-3.0759,-3.0726,-3.0715,-3.0712,-3.071,-3.0709,-3.07,-3.0702,0,0,0,0,0,0,-3.1095,-3.1076,-3.0998,-3.0992,-3.1021,-3.0951,-3.0938,-3.0924,-3.0848,-3.0835,-3.087,-3.0865,-3.0772,-3.0763,-3.0755,-3.0765,-3.0712,-3.0709,-3.0707,-3.0699,-3.0701,-3.0702,0,0,0,0,0,0,-3.1097,-3.1089,-3.1002,-3.1032,-3.1019,-3.0951,-3.0936,-3.0923,-3.0907,-3.0836,-3.0823,-3.0867,-3.077,-3.0759,-3.0743,-3.076,-3.0708,-3.0705,-3.0697,-3.0699,-3.0701,-3.0786,0,0,0,0,0,0,-3.1101,-3.109,-3.1097,-3.1033,-3.1018,-3.0994,-3.0937,-3.0922,-3.0903,-3.0895,-3.083,-3.0817,-3.0768,-3.0748,-3.074,-3.0755,-3.0703,-3.0695,-3.0698,-3.0701,-3.0781,-3.079,-3.0799,0,0,0,0,0,-3.1105,-3.1123,-3.1097,-3.1088,-3.1025,-3.0995,-3.0986,-3.0931,-3.0905,-3.0909,-3.0864,-3.0819,-3.076,-3.0747,-3.0737,-3.0751,-3.0694,-3.0697,-3.07,-3.0777,-3.0788,-3.0798,0,0,0,0,0,0,-3.1187,-3.1113,-3.1084,-3.1083,-3.1047,-3.098,-3.0984,-3.0946,-3.0914,-3.0907,-3.0838,-3.0824,-3.0815,-3.0781,-3.0768,-3.076,-3.072,-3.0722,-3.0782,-3.0792,-3.0801,-3.0808,-3.07,0,0,0,0,0,-3.1206,-3.1191,-3.1126,-3.1131,-3.1114,-3.1053,-3.1038,-3.0999,-3.0957,-3.094,-3.0894,-3.0852,-3.0824,-3.0807,-3.0777,-3.0776,-3.0759,-3.0781,-3.079,-3.0798,-3.0799,-3.0794,-3.0802,-3.0713,-3.0713,-3.0713,0,0,-3.1243,-3.1201,-3.1195,-3.1146,-3.1113,-3.1096,-3.104,-3.1025,-3.101,-3.0937,-3.0919,-3.0884,-3.0833,-3.0824,-3.0818,-3.0796,-3.082,-3.0802,-3.0809,-3.0805,-3.0798,-3.0807,-3.0814,-3.0716,-3.0715,-3.0715,0,0,-3.1302,-3.127,-3.1269,-3.1238,-3.119,-3.1149,-3.115,-3.1089,-3.1064,-3.1046,-3.099,-3.097,-3.0924,-3.0889,-3.0866,-3.0913,-3.0869,-3.0905,-3.0949,-3.0945,-3.0952,-3.0958,-3.0972,-3.0978,-3.0907,-3.0907,-3.0907,0,-3.1353,-3.1328,-3.1273,-3.1262,-3.1241,-3.1177,-3.1174,-3.1146,-3.109,-3.1075,-3.1053,-3.0993,-3.0954,-3.0935,-3.0947,-3.0931,-3.0926,-3.091,-3.0956,-3.0962,-3.0966,-3.0978,-3.0984,-3.0911,-3.0911,-3.091,-3.091,0,-3.1392,-3.1376,-3.1381,-3.1331,-3.1311,-3.1304,-3.1246,-3.1232,-3.1195,-3.1156,-3.1136,-3.1088,-3.1047,-3.104,-3.1003,-3.1016,-3.1003,-3.097,-3.0928,-3.098,-3.099,-3.0995,-3.0918,-3.0916,-3.0915,-3.0914,0,0,-3.1497,-3.1419,-3.1422,-3.1398,-3.1341,-3.1325,-3.1315,-3.1277,-3.1265,-3.1229,-3.1216,-3.1179,-3.1147,-3.1121,-3.1079,-3.1076,-3.1113,-3.1042,-3.1039,-3.1054,-3.112,-3.1145,-3.1151,-3.1085,-3.1086,-3.1086,-3.1124,0,-3.1544,-3.1524,-3.1475,-3.1469,-3.1452,-3.1391,-3.1381,-3.1344,-3.1307,-3.1285,-3.1243,-3.1217,-3.1178,-3.1162,-3.1156,-3.111,-3.1125,-3.1107,-3.1068,-3.1068,-3.1081,-3.1157,-3.1182,-3.122,-3.1128,-3.1129,-3.1129,0,-3.1596,-3.1566,-3.1559,-3.1503,-3.1494,-3.1486,-3.1447,-3.1428,-3.1383,-3.1356,-3.1328,-3.1283,-3.1265,-3.1229,-3.1202,-3.1191,-3.1172,-3.1147,-3.1147,-3.1139,-3.11,-3.1148,-3.1231,-3.1236,-3.1135,-3.1135,-3.1134,0,-3.1671,-3.1629,-3.1619,-3.1601,-3.1535,-3.1531,-3.1503,-3.1457,-3.1438,-3.1403,-3.1389,-3.1352,-3.1331,-3.1301,-3.1246,-3.1226,-3.1224,-3.1184,-3.1198,-3.1199,-3.1198,-3.1198,-3.1276,-3.1191,-3.1191,-3.1191,-3.1191,0,-3.1727,-3.1724,-3.1652,-3.1645,-3.164,-3.1583,-3.1578,-3.1543,-3.1503,-3.1487,-3.1432,-3.1417,-3.1347,-3.1323,-3.1279,-3.1262,-3.1253,-3.1228,-3.1216,-3.1232,-3.1235,-3.1216,-3.1211,-3.1192,-3.1192,-3.1192,-3.1191,0,-3.1808,-3.176,-3.1745,-3.1685,-3.167,-3.1668,-3.1615,-3.1605,-3.1566,-3.1546,-3.1538,-3.1475,-3.1444,-3.1387,-3.1339,-3.131,-3.13,-3.1281,-3.1316,-3.1308,-3.1325,-3.1323,-3.1391,-3.1396,-3.1311,-3.1312,-3.1313,0,-3.1846,-3.1843,-3.1784,-3.177,-3.1745,-3.1724,-3.1705,-3.1648,-3.1629,-3.1579,-3.1574,-3.1539,-3.1508,-3.1461,-3.1409,-3.1371,-3.1349,-3.1376,-3.1342,-3.1358,-3.1346,-3.1346,-3.1344,-3.1382,-3.1383,-3.1384,-3.1385,0,-3.1917,-3.1894,-3.1869,-3.1837,-3.1816,-3.1786,-3.1754,-3.1745,-3.168,-3.1662,-3.1631,-3.1608,-3.156,-3.1525,-3.148,-3.1447,-3.1404,-3.1397,-3.1397,-3.1412,-3.1431,-3.1418,-3.1334,-3.1394,-3.1394,-3.1393,-3.1392,-3.1392,-3.1975,-3.1969,-3.1927,-3.1901,-3.1872,-3.1843,-3.1831,-3.1791,-3.1766,-3.1724,-3.1692,-3.1663,-3.1617,-3.1553,-3.1523,-3.1497,-3.1477,-3.1479,-3.1478,-3.1479,-3.1484,-3.1438,-3.1488,-3.1488,-3.1488,-3.1488,-3.1487,0,-3.2041,-3.2012,-3.1989,-3.1947,-3.1926,-3.1892,-3.1854,-3.1838,-3.1815,-3.1777,-3.1749,-3.1712,-3.1678,-3.1624,-3.1585,-3.1575,-3.1554,-3.1566,-3.1564,-3.1557,-3.1505,-3.1508,-3.1583,-3.1583,-3.1583,-3.1583,-3.1583,-3.1583,-3.2073,-3.2061,-3.2033,-3.2004,-3.1973,-3.1948,-3.1929,-3.19,-3.187,-3.1833,-3.1806,-3.1773,-3.1727,-3.1684,-3.165,-3.1635,-3.1621,-3.1639,-3.1617,-3.157,-3.1561,-3.1552,-3.1554,-3.1638,-3.1638,-3.167,-3.1671,-3.1671]},{"header":{"parameterUnit":"m.s-1","parameterCategory":1,"la1":30.2991,"la2":30.254,"lo1":-89.0895,"lo2":-89.0444,"dy":0.0017,"dx":0.0017,"nx":28,"ny":28,"refTime":"2024-05-02T21:00:00:Z","depth":0,"parameterNumber":3,"parameterNumberName":"V-component_of_WINDS"},"data":[0,0,0,0,0,0,0,0,0,0,0,0,0,0,0,0,0,0,0,0,0,0,0,0,0,0,0,0,0,0,0,0,0,0,0,0,0,0,0,0,0,0,0,0,0,0,0,0,0,0,0,0,0,0,0,0,0,0,1.2928,1.2927,0,1.2873,1.2872,1.2872,1.2855,1.2855,1.2855,1.2855,1.2797,1.2795,1.2794,0,0,0,0,0,0,0,0,0,0,0,0,0,1.3014,1.3013,1.2928,1.2927,1.2926,1.2873,1.2872,1.2871,1.2854,1.2855,1.2855,1.2855,1.2798,1.2796,1.2793,0,0,0,0,0,0,0,0,0,0,0,0,0,1.297,1.3012,1.2928,1.2911,1.2909,1.2873,1.2872,1.2871,1.2854,1.2855,1.2855,1.2856,1.2798,1.2796,1.2793,1.2768,0,0,1.2785,1.2784,0,0,0,0,0,0,0,0,1.2972,1.2967,1.2914,1.2912,1.291,1.2871,1.2881,1.2837,1.2854,1.2875,1.2855,1.2856,1.2821,1.2817,1.2805,1.2766,1.2763,1.2785,1.2783,1.2782,1.2781,0,0,0,0,0,0,0,1.2976,1.2969,1.2906,1.2914,1.2911,1.2906,1.29,1.2873,1.2847,1.2873,1.2872,1.2866,1.282,1.2808,1.2804,1.2762,1.2785,1.2782,1.2781,1.278,1.2697,1.2696,0,0,0,0,0,0,1.2982,1.2972,1.2908,1.2904,1.2943,1.2904,1.2897,1.2883,1.2847,1.2842,1.2866,1.2865,1.2812,1.2807,1.2802,1.2769,1.2782,1.2779,1.2778,1.2697,1.2697,1.2696,0,0,0,0,0,0,1.2984,1.2976,1.291,1.2937,1.2929,1.2902,1.2886,1.2882,1.287,1.2841,1.2836,1.2858,1.2813,1.2806,1.2776,1.2767,1.2778,1.2776,1.2698,1.2697,1.2696,1.2704,0,0,0,0,0,0,1.2986,1.2977,1.2968,1.2937,1.2927,1.2886,1.2886,1.288,1.2865,1.2865,1.2833,1.2828,1.2812,1.2781,1.2774,1.2763,1.2774,1.2699,1.2698,1.2697,1.2705,1.2704,1.2703,0,0,0,0,0,1.2989,1.2973,1.2968,1.296,1.2916,1.2886,1.288,1.2863,1.2865,1.2855,1.2836,1.2829,1.2769,1.2778,1.277,1.2759,1.2699,1.2698,1.2697,1.2705,1.2704,1.2703,0,0,0,0,0,0,1.3003,1.2968,1.2963,1.2936,1.2914,1.2883,1.2871,1.2863,1.284,1.284,1.2819,1.2812,1.2784,1.2768,1.2778,1.2731,1.2734,1.2731,1.2743,1.2741,1.2741,1.2745,1.2771,0,0,0,0,0,1.3003,1.2982,1.2953,1.2932,1.2921,1.2898,1.2884,1.2873,1.2849,1.284,1.2819,1.2795,1.2771,1.2755,1.2731,1.2702,1.2694,1.269,1.269,1.2689,1.2687,1.2668,1.2666,1.2692,1.2692,1.2692,0,0,1.3003,1.2981,1.2969,1.2934,1.2916,1.2894,1.289,1.2868,1.2851,1.2836,1.2807,1.2791,1.2763,1.2733,1.2719,1.2719,1.2677,1.2687,1.2687,1.2685,1.2667,1.2664,1.2662,1.2691,1.2691,1.2691,0,0,1.299,1.2973,1.2952,1.2934,1.2906,1.289,1.2885,1.2855,1.2844,1.2815,1.2803,1.2782,1.2741,1.2721,1.2705,1.2683,1.2675,1.2676,1.2671,1.2654,1.2652,1.265,1.2641,1.2638,1.2674,1.2674,1.2674,0,1.2993,1.2961,1.2943,1.292,1.2904,1.289,1.2868,1.2851,1.2817,1.2806,1.2807,1.2754,1.2734,1.2699,1.2693,1.2681,1.2674,1.268,1.2654,1.2651,1.2649,1.264,1.2637,1.2674,1.2674,1.2674,1.2674,0,1.2965,1.2942,1.2929,1.2896,1.2878,1.2857,1.2834,1.2818,1.2808,1.2792,1.2761,1.2736,1.2707,1.2697,1.2687,1.266,1.2661,1.2658,1.266,1.2647,1.2638,1.2635,1.2674,1.2674,1.2674,1.2674,0,0,1.2961,1.2917,1.2913,1.2897,1.2864,1.2846,1.2822,1.2793,1.2779,1.2756,1.2735,1.2699,1.2696,1.2678,1.2665,1.265,1.2632,1.2649,1.2647,1.2646,1.2599,1.2601,1.2597,1.2627,1.2626,1.2625,1.2601,0,1.2944,1.2903,1.2885,1.2851,1.2828,1.2813,1.2793,1.277,1.2753,1.2731,1.2712,1.2687,1.2685,1.2674,1.2658,1.2638,1.2622,1.2639,1.2605,1.2604,1.2613,1.2593,1.2595,1.2574,1.2597,1.2597,1.2596,0,1.292,1.2895,1.2859,1.2827,1.2817,1.2799,1.277,1.2749,1.2722,1.2711,1.269,1.2678,1.2651,1.2654,1.2616,1.2628,1.2613,1.26,1.2599,1.2595,1.26,1.2588,1.2566,1.2563,1.2591,1.2591,1.2592,0,1.2919,1.2878,1.285,1.2837,1.28,1.2787,1.277,1.2744,1.2727,1.2701,1.2689,1.2661,1.2645,1.2622,1.2601,1.2606,1.2564,1.2567,1.2553,1.2554,1.2545,1.2546,1.2521,1.2537,1.2537,1.2537,1.2537,0,1.2902,1.288,1.2849,1.2832,1.2806,1.2786,1.276,1.2743,1.2719,1.2697,1.2682,1.2662,1.2636,1.2612,1.2595,1.2565,1.2558,1.2547,1.2543,1.2549,1.255,1.2538,1.2539,1.2536,1.2536,1.2536,1.2536,0,1.2898,1.2877,1.2845,1.2812,1.2803,1.2785,1.2756,1.2738,1.272,1.2693,1.2685,1.2657,1.2627,1.2604,1.2566,1.2555,1.2523,1.2519,1.2532,1.253,1.2518,1.2519,1.2484,1.2477,1.2498,1.2498,1.2498,0,1.2889,1.2871,1.2836,1.282,1.2804,1.2779,1.2761,1.2739,1.2721,1.2688,1.2673,1.2643,1.2618,1.2571,1.2546,1.2517,1.2511,1.2501,1.2506,1.2512,1.251,1.2511,1.2508,1.25,1.25,1.25,1.25,0,1.2874,1.2863,1.2839,1.281,1.2789,1.2765,1.2741,1.2729,1.2702,1.2682,1.2652,1.2632,1.2593,1.2562,1.2529,1.2511,1.25,1.2498,1.2493,1.2498,1.2507,1.2501,1.253,1.2499,1.2499,1.2499,1.2499,1.2499,1.2866,1.2849,1.2821,1.2794,1.2773,1.275,1.2731,1.271,1.2685,1.2651,1.2639,1.2608,1.2579,1.2533,1.2515,1.2489,1.2488,1.2482,1.248,1.2478,1.2478,1.2511,1.2483,1.2483,1.2483,1.2483,1.2483,0,1.285,1.283,1.2805,1.2771,1.2749,1.2741,1.2713,1.2695,1.2668,1.2641,1.2616,1.2581,1.255,1.2523,1.2491,1.2475,1.2469,1.2467,1.2468,1.2464,1.2481,1.2488,1.2472,1.2472,1.2472,1.2472,1.2472,1.2472,1.2839,1.2809,1.2795,1.2755,1.2735,1.2704,1.2689,1.2667,1.2646,1.2607,1.2581,1.2564,1.2536,1.2502,1.2473,1.2465,1.2454,1.2453,1.2444,1.2461,1.2463,1.2464,1.247,1.2451,1.2451,1.2428,1.2428,1.2428]}]]